Regional Weather Roundup
Issued by NWS Albany, NY

Home | Current Version | Previous Version | Text Only | Print | Product List | Glossary On
Versions: 1 2 3 4 5 6 7 8 9 10 11 12 13 14 15 16 17 18 19 20 21 22 23 24 25 26 27 28 29 30 31 32 33 34 35 36 37 38 39 40 41 42 43 44 45 46 47 48 49 50
000
ASUS41 KALY 240510
RWRALY

NEW YORK STATE HOURLY WEATHER ROUNDUP
NATIONAL WEATHER SERVICE ALBANY NY
1200 AM EST TUE JAN 24 2017

NOTE: "FAIR" INDICATES FEW OR NO CLOUDS BELOW 12,000 FEET WITH NO
SIGNIFICANT WEATHER AND/OR NO OBSTRUCTIONS TO VISIBILITY.

NYZ032-033-038>043-046>054-057>066-NYZ062>081-082-084-240600-
EAST


CITY           SKY/WX    TMP DP  RH WIND       PRES   REMARKS
ALBANY         FRZ RAIN  32  29  88 N10G18    29.75F FOG     WCI  24
GLENS FALLS    LGT RAIN  33  26  75 N14       29.81F WCI  23
POUGHKEEPSIE   RAIN      34  31  88 N14       29.58F FOG     WCI  25
NEWBURGH       CLOUDY    34  32  93 NE17G30   29.56F FOG     WCI  23
MONTGOMERY     RAIN      34  31  88 NE18G29   29.55F FOG     WCI  23
WHITE PLAINS   LGT RAIN  37  33  85 NE21G30   29.46F FOG     WCI  26
ISLIP          LGT RAIN  39  37  92 NE25G39   29.42F WCI  28
NEW YORK CITY  HVY RAIN  39  35  86 NE28G36   29.47F FOG     WCI  28
CENTRAL PARK   RAIN      36  35  96 NE16G31   29.48F FOG     WCI  26
$$

NYZ005>009-017-018-044>046-055-056-240600-
CENTRAL


CITY           SKY/WX    TMP DP  RH WIND       PRES   REMARKS
FULTON         LGT RAIN  33  29  85 NE6       29.74F WCI  28
SYRACUSE       FRZ RAIN  31  30  96 NE8       29.72F WCI  23
ROME           LGT RAIN  33  31  92 E6        29.73F WCI  28
ELMIRA         RAIN      34  30  85 NE7       29.64F WCI  28
BINGHAMTON     FRZ RAIN  31  30  96 NE13G20   29.57F FOG     WCI  21
MONTICELLO     CLOUDY    34  32  93 E16G24    29.50F WCI  23
$$

NYZ026>034-041>043-087-240600-
NORTH


CITY           SKY/WX    TMP DP  RH WIND       PRES   REMARKS
WATERTOWN      MIX PCPN  31  29  92 NE12      29.78F FOG     WCI  22
FORT DRUM      NOT AVBL
OGDENSBURG     MOCLDY    30  25  81 NE10      29.85F WCI  21
MASSENA        CLOUDY    29  22  75 NE17      29.89F WCI  17
SARANAC LAKE   MIX PCPN  28  21  75 NE13      29.76F WCI  17
PLATTSBURGH    CLOUDY    32  22  66 E5        29.90F WCI  27
$$

NYZ001>004-010>016-019>021-085-240600-
WEST


CITY           SKY/WX    TMP DP  RH WIND       PRES   REMARKS
NIAGARA FALLS  MOCLDY    36  29  75 NE12      29.71F WCI  28
BUFFALO        CLOUDY    34  26  72 NE9       29.70F WCI  27
DUNKIRK        CLOUDY    36  30  79 NE8       29.68S WCI  30
JAMESTOWN      CLOUDY    34  30  86 NE6       29.62R WCI  29
WELLSVILLE     FRZ RAIN  32  29  88 NE8       29.61F WCI  25
ROCHESTER      LGT RAIN  36  26  67 E13       29.73F WCI  27
PENN YAN       MIX PCPN  32  27  81 N7        29.69F WCI  26
$$

             KEY
       WCI = WIND CHILL INDEX
       VSB = VISIBILITY
       HX  = HEAT INDEX
$$



USA.gov is the U.S. government's official web portal to all federal, state and local government web resources and services.